Hourly Data Report for February 29, 2004

TORONTO CITY
ONTARIO

43°40'00.000" N
79°24'00.000" W
112.50 m
6158355
71508
XTO

Download Data

Hourly Data (February 2004)
Hourly Data Report for February 29, 2004
TIME
LST
Temp Definition
°C
Dew Point Definition
°C
Rel Hum Definition
%
Precip. Amount Definition
mm

Wind Dir Definition
10's deg

Wind Spd Definition
km/h
Visibility Definition
km
Stn Press Definition
kPa
Hmdx Definition


Wind Chill Definition


Weather Definition


00:00 2.4 -4.4 61   LegendMM LegendMM LegendMM 101.14     LegendNANA
01:00 1.8 -3.2 69   LegendMM LegendMM LegendMM 101.08     LegendNANA
02:00 1.4 -3.7 69   LegendMM LegendMM LegendMM 101.06     LegendNANA
03:00 1.5 -2.2 76   LegendMM LegendMM LegendMM 101.03     LegendNANA
04:00 1.9 -2.5 73   LegendMM LegendMM LegendMM 100.98     LegendNANA
05:00 1.6 -2.8 73   LegendMM LegendMM LegendMM 101.02     LegendNANA
06:00 0.9 -2.7 77   LegendMM LegendMM LegendMM 101.00     LegendNANA
07:00 1.4 -2.3 76   LegendMM LegendMM LegendMM 101.00     LegendNANA
08:00 2.7 -1.9 72   LegendMM LegendMM LegendMM 101.02     LegendNANA
09:00 4.0 -1.7 66   LegendMM LegendMM LegendMM 100.99     LegendNANA
10:00 5.7 -1.1 62   LegendMM LegendMM LegendMM 100.96     LegendNANA
11:00 7.6 -0.5 56   LegendMM LegendMM LegendMM 100.94     LegendNANA
12:00 10.0 0.6 52   LegendMM LegendMM LegendMM 100.90     LegendNANA
13:00 9.4 -0.9 49   LegendMM LegendMM LegendMM 100.86     LegendNANA
14:00 10.0 -1.5 45   LegendMM LegendMM LegendMM 100.80     LegendNANA
15:00 9.5 -0.8 49   LegendMM LegendMM LegendMM 100.78     LegendNANA
16:00 8.8 0.5 56   LegendMM LegendMM LegendMM 100.78     LegendNANA
17:00 8.5 0.2 56   LegendMM LegendMM LegendMM 100.75     LegendNANA
18:00 8.4 -0.2 55   LegendMM LegendMM LegendMM 100.76     LegendNANA
19:00 8.3 -0.5 54   LegendMM LegendMM LegendMM 100.78     LegendNANA
20:00 7.7 -1.1 54   LegendMM LegendMM LegendMM 100.80     LegendNANA
21:00 6.9 -0.9 58   LegendMM LegendMM LegendMM 100.82     LegendNANA
22:00 6.3 -1.0 60   LegendMM LegendMM LegendMM 100.82     LegendNANA
23:00 6.0 -0.6 63   LegendMM LegendMM LegendMM 100.84     LegendNANA

Notes on Data Quality.

Legend

  • E = Estimated
  • M = Missing
  • NA = Not Available*
  • [empty] = Indicates an unobserved value
Date modified: